Regional Weather Roundup
Issued by NWS Grand Forks, ND

Home | Current Version | Previous Version | Graphics & Text | Print | Product List | Glossary On
Versions: 1 2 3 4 5 6 7 8 9 10 11 12 13 14 15 16 17 18 19 20 21 22 23 24 25 26 27 28 29 30 31 32 33 34 35 36 37 38 39 40 41 42 43 44 45 46 47 48 49 50
000
ASUS43 KFGF 301631
RWRFGF
PRAIRIE TO PINES  WEATHER ROUNDUP
NATIONAL WEATHER SERVICE EASTERN NORTH DAKOTA/GRAND FORKS ND
1100 AM CDT MON MAR 30 2015

 **SATELLITE DATA USED TO AUGMENT SKY COVER AT AUTOMATED STATIONS**
 *****  WEATHER ACROSS EASTERN NORTH DAKOTA  *****

CITY           SKY/WX    TMP DP  RH WIND       PRES   REMARKS
GRAND FORKS    CLOUDY    43  37  79 SE12      29.80F
GRAND FRKS AFB PTSUNNY   45  37  75 SE14      29.79F
GRAND FRKS NWS   N/A     41 N/A N/A E10         N/A
DEVILS LAKE    CLOUDY    45  36  70 E6        29.79S
FARGO          CLOUDY    46  33  60 E6        29.85S
WAHPETON ARPT  PTSUNNY   48  32  53 E8        29.83F
$$

 ***** WEATHER ACROSS CENTRAL AND WESTERN NORTH DAKOTA  *****

CITY           SKY/WX    TMP DP  RH WIND       PRES   REMARKS
BISMARCK       MOSUNNY   57  35  43 NW23G29   29.87R
MINOT          SUNNY     52  36  54 W16       29.83R
JAMESTOWN      MOSUNNY   54  34  46 NW12      29.78F
MINOT AFB      SUNNY     51  40  68 NW17      29.82R
GARRISON         N/A     54  38  54 NW22      29.85R
WILLISTON      SUNNY     56  37  49 NW9       29.93R
DICKINSON      MOSUNNY   55  33  43 NW25G32   29.92R
HETTINGER      PTSUNNY   58  32  37 NW25G33   29.96R
$$

 *****  OTHER AIRPORT OBSERVATIONS IN OUR AREA  *****

CITY           SKY/WX    TMP DP  RH WIND       PRES   REMARKS
WALHALLA         N/A     39  39 100 S8        29.88R
GRAFTON AIRPOR NOT AVBL
VALLEY CITY AR FAIR      48  37  66 CALM      29.79F
CANDO          PTSUNNY   45  36  70 E12       29.80S
CAVALIER APRT  LGT RAIN  39  32  75 CALM      29.88R
GWINNER        MOSUNNY   54  36  50 W9          N/A
SHEYENNE NWR     N/A     48  33  55 S6        29.95S
ROLLA          FAIR      45  32  61 E12       29.82S
 ***** THE ABOVE OBSERVATIONS ARE NON NWS ARE NOT QUALITY
       CONTROLLED AND MAY MIS-REPORT RAIN FOR SNOW...
$$

  *****  WEATHER ACROSS NORTHERN MINNESOTA  *****

CITY           SKY/WX    TMP DP  RH WIND       PRES   REMARKS
FLAG ISLAND    PTSUNNY   34  30  86 SE8       29.84F
WARROAD        CLOUDY    39  32  75 SW6       29.86S
ROSEAU         CLOUDY    39  32  75 CALM      29.85F
HALLOCK        CLOUDY    39  36  87 E7        29.84R
THF RVR FALLS  CLOUDY    43  34  70 SE9       29.85F
BAUDETTE       CLOUDY    42  29  59 S6        29.84F
WASKISH        CLOUDY    41  34  75 CALM      29.87S
CROOKSTON      MIX PCPN  43  36  75 SE9       29.83F
$$
  *****  WEATHER ACROSS CENTRAL AND WEST MINNESOTA  *****

CITY           SKY/WX    TMP DP  RH WIND       PRES   REMARKS
FOSSTON        LGT RAIN  39  37  93 CALM      29.86F
BEMIDJI        CLOUDY    42  33  70 E8        29.87F
PARK RAPIDS    CLOUDY    44  32  62 NE10      29.86F
ELBOW LAKE     CLOUDY    44  33  65 SE7       29.84F
WADENA         CLOUDY    45  30  57 E10       29.86F
DETROIT LAKES  CLOUDY    46  30  53 E8        29.88R
MOORHEAD       CLOUDY    48  37  66 E5        29.84F
FERGUS FALLS   CLOUDY    46  28  49 SE6       29.87S
MORRIS MN      PTSUNNY   46  36  66 SE10      29.84F
STAPLES        CLOUDY    48  27  43 E6        29.88S
$$
  *****  WEATHER ELSEWHERE ACROSS MINNESOTA  *****

CITY           SKY/WX    TMP DP  RH WIND       PRES   REMARKS
DULUTH         PTSUNNY   47  21  35 NW7       29.91S
INTRNTL FALLS  PTSUNNY   44  23  43 CALM      29.87F
ELY            SUNNY     45  21  39 NW6       29.88S
CLOQUET        CLOUDY    45  21  39 S5        29.92R
WHEATON        PTSUNNY   54  32  43 S7        29.84F
BRAINERD       CLOUDY    41  30  65 E3        29.91F
HIBBING        PTSUNNY   48  22  35 W7        29.89F
ALEXANDRIA     CLOUDY    43  31  62 SE8       29.86F
SAINT CLOUD    CLOUDY    41  32  70 SE3       29.92S
MINNEAPOLIS    CLOUDY    43  29  57 SE3       29.96R
$$

  *****  WEATHER ACROSS SOUTH DAKOTA  *****

CITY           SKY/WX    TMP DP  RH WIND       PRES   REMARKS
SIOUX FALLS    PTSUNNY   58  21  24 W15G22    29.92S
BROOKINGS      NOT AVBL
WATERTOWN      MOSUNNY   60  29  30 W16       29.87F
HURON          MOSUNNY   59  28  30 VRB3      29.89F
SISSETON         N/A     61  31  32 W16       29.81F
ABERDEEN       MOSUNNY   63  32  31 W13       29.84F
MITCHELL       MOSUNNY   61  27  27 W14       29.91F
PIERRE         CLOUDY    57  30  35 NW15      29.94S
MOBRIDGE       MOSUNNY   59  34  39 NW20      29.87S
RAPID CITY     PTSUNNY   61  28  28 NW24      30.05R
$$

  *****  SOME WEATHER IN NEARBY STATES *****

CITY           SKY/WX    TMP DP  RH WIND       PRES   REMARKS
GLASGOW MT     SUNNY     53  33  46 NW14      30.00R
GREAT FALLS MT PTSUNNY   57  28  33 SW15      30.07S
CHEYENNE WY    SUNNY     57  17  21 NW17G26   30.19R
SCOTTSBLUFF NE SUNNY     58  25  28 W13       30.12R
OMAHA NE       PTSUNNY   62  28  27 SW10      30.06F
DES MOINES IA  CLOUDY    63  23  21 SW20      30.06F
DAVENPORT IA   SUNNY     57  31  37 W20       30.08F
CHICAGO IL     PTSUNNY   51  29  42 W13       30.05F
EAU CLAIRE WI  CLOUDY    44  30  57 SW6       29.97R
LA CROSSE WI   PTSUNNY   48  28  46 W8        29.98S
$$

  *****  SOME NATIONAL WEATHER *****

CITY           SKY/WX    TMP DP  RH WIND       PRES   REMARKS
LA GUARDIA NY  CLOUDY    41  30  65 SW13G21   29.84F
RALEIGH NC     CLOUDY    43  40  89 SW10      30.07F
ATLANTA GA     CLOUDY    61  54  77 W13       30.17S
NEW ORLEANS LA PTSUNNY   77  64  64 SW12      30.25F
OKLAHOMA CITY  MOSUNNY   66  42  41 S10G16    30.23R
ALBUQUERQUE NM MOSUNNY   60  27  28 CALM      30.29R
SALT LAKE CITY SUNNY     55  24  30 SW5       30.23S
LOS ANGELES CA MOSUNNY   61  55  82 CALM      30.04S FOG
BOISE ID       SUNNY     53  31  42 CALM      30.18R
SEATTLE WA     PTSUNNY   53  48  83 S12       30.09F
$$

*** WEATHER ACROSS MANITOBA...SASKATCHEWAN AND ONTARIO ***
                ***ONTARIO***

CITY           SKY/WX    TMP DP  RH WIND       PRES   REMARKS
GERALDTON      FLURRIES  19  10  68 W9        29.86R WCI   9
THUNDER BAY    PTSUNNY   36  25  64 NW9       29.90R
SIOUX LOOKOUT  MOSUNNY   28  19  69 NW5       29.88S WCI  23
TORONTO        PTSUNNY   43  27  52 W30G37    29.75R
BIG TROUT LK   SUNNY      5  -2  72 W3        29.94F
PICKLE LAKE    MOSUNNY   21   5  49 VRB2      29.88S
DRYDEN         SUNNY     34  25  69 CALM      29.87S
KENORA         PTSUNNY   41  27  56 VRB2      29.85F
$$
                *** MANITOBA***

CITY           SKY/WX    TMP DP  RH WIND       PRES   REMARKS
BRANDON        MOSUNNY   46  32  57 S10       29.83S
DAUPHIN        CLOUDY    45  37  76 S2        29.78S
ISLAND LAKE    PTSUNNY   16  10  79 SE9       29.88F WCI   4
PILOT MOUND      N/A     37  34  87 E6          N/A
THE PAS        LGT RAIN  34  32  93 SE6       29.70S
THOMPSON       PTSUNNY   19  14  79 SE5       29.82F WCI  13
WINNIPEG       PTSUNNY   43  28  56 S3        29.84
LYNN LAKE      CLOUDY    21  21 100 E5        29.74R WCI  15
CHURCHILL      MOSUNNY    1  -4  78 N10       30.00R WCI -14
GILLAM         MOSUNNY   10   0  61 NE3       29.93F
$$
                ***SASKATCHEWAN***

CITY           SKY/WX    TMP DP  RH WIND       PRES   REMARKS
ESTEVAN        MOSUNNY   48  39  71 W14       29.90R
KINDERSLEY     MOSUNNY   46  32  57 NW14G21   29.97R
LLOYDMINSTER   MOSUNNY   43  30  61 W13G21    29.90R
PRINCE ALBERT  MOSUNNY   46  36  66 NW17G26   29.79R
REGINA         PTSUNNY   46  39  76 NW15      29.90R
YORKTON        SUNNY     48  39  71 W18G24    29.77S
N. BATTLEFORD  SUNNY     45  32  61 NW20G26   29.91R
LA RONGE       PTSUNNY   43  37  81 W8        29.72R
SASKATOON      MOSUNNY   46  34  61 NW22G28   29.89R
SWIFT CURRENT  SUNNY     45  34  65 W14       29.98R
$$
NOTE: THESE ARE AUTOMATED STATIONS WITH LIMITED QUALITY CONTROL
      "FAIR" INDICATES FEW OR NO CLOUDS BELOW 12,000 FEET WITH NO
      SIGNIFICANT WEATHER AND/OR OBSTRUCTIONS TO VISIBILITY.
      SKY/WX - SKY CONDITION AND SIGNIFICANT WEATHER.
      TMP - AIR TEMPERATURE.    DP   - DEWPOINT TEMPERATURE.
      RH  - RELATIVE HUMIDITY.  PRES - PRESSURE.
      HX  - HEAT INDEX.         WCI  - WIND CHILL INDEX.
$


USA.gov is the U.S. government's official web portal to all federal, state and local government web resources and services.